This demonstration page uses our WeatherBlox Daily Observations layout. Learn more.

Left ArrowRight Arrow

Hourly Observations for November 24, 2018

Temp ( °F °C ) Dew Point ( °F °C ) Humidity (%) Winds ( mph kmh ) Pressure ( in mb ) Visibility ( mi km ) Precip ( " mm )
12:52 am 00:52 Mostly Clear 41 5 29 -1.7 62 62 NW 8 13 29.60 1002 10 16 0.00 0.00
1:52 am 01:52 Clear 41 5 29 -1.7 62 62 WNW 5 7 29.61 1003 10 16 0.00 0.00
2:52 am 02:52 Clear 35 1.7 28 -2.2 76 76 NW 7 11 29.62 1003 10 16 0.00 0.00
3:52 am 03:52 Clear 39 3.9 29 -1.7 67 67 WNW 7 11 29.63 1003 10 16 0.00 0.00
4:52 am 04:52 Clear 35 1.7 28 -2.2 76 76 NW 8 13 29.63 1004 10 16 0.00 0.00
5:52 am 05:52 Clear 37 2.8 28 -2.2 70 70 NW 5 7 29.65 1004 10 16 0.00 0.00
6:52 am 06:52 Mostly Clear 37 2.8 27 -2.8 67 67 WSW 5 7 29.65 1004 10 16 0.00 0.00
7:52 am 07:52 Partly Cloudy 34 1.1 27 -2.8 76 76 Calm 29.66 1005 10 16 0.00 0.00
8:52 am 08:52 Partly Cloudy 38 3.3 31 -0.6 76 76 Calm 29.67 1005 10 16 0.00 0.00
9:52 am 09:52 Mostly Cloudy 46 7.8 31 -0.6 56 56 NW 3 6 29.68 1005 10 16 0.00 0.00
10:52 am 10:52 Mostly Cloudy 48 8.9 31 -0.6 52 52 NNW 5 7 29.68 1005 10 16 0.00 0.00
11:52 am 11:52 Mostly Cloudy 50 10 31 -0.6 48 48 Calm 29.68 1005 10 16 0.00 0.00
12:52 pm 12:52 Mostly Cloudy 52 11.1 32 0 47 47 Calm 29.65 1004 10 16 0.00 0.00
1:52 pm 13:52 Mostly Cloudy 52 11.1 31 -0.6 45 45 Calm 29.64 1004 10 16 0.00 0.00
2:52 pm 14:52 Cloudy 52 11.1 32 0 47 47 N 3 6 29.64 1004 10 16 0.00 0.00
3:52 pm 15:52 Mostly Cloudy 51 10.6 35 1.7 54 54 Calm 29.66 1004 10 16 0.00 0.00
4:52 pm 16:52 Cloudy 48 8.9 34 1.1 58 58 N 3 6 29.67 1005 10 16 0.00 0.00
5:52 pm 17:52 Cloudy 46 7.8 35 1.7 66 66 NNE 6 9 29.69 1006 10 16 0.00 0.00
6:52 pm 18:52 Cloudy with Rain 47 8.3 37 2.8 69 69 NNE 21 33 29.68 1005 9 14 0.00 0.03
7:52 pm 19:52 Cloudy 46 7.8 37 2.8 71 71 NNE 13 20 29.71 1006 10 16 0.01 0.25
8:52 pm 20:52 Cloudy 44 6.7 36 2.2 73 73 N 6 9 29.74 1007 10 16 0.00 0.00
9:52 pm 21:52 Cloudy 44 6.7 36 2.2 73 73 NNE 13 20 29.77 1008 10 16 0.00 0.00
10:41 pm 22:41 Cloudy with Light Rain 41 5 36 2.2 82 82 N 7 11 29.83 1010 10 16 0.00 0.03
10:52 pm 22:52 Cloudy with Light Rain 41 5 35 1.7 79 79 NNE 13 20 29.81 1010 9 14 0.00 0.03
11:52 pm 23:52 Cloudy with Light Rain 36 2.2 33 0.6 89 89 NNE 16 26 29.83 1010 5 8 0.02 0.51

Powered by AerisWeather